Dewpoint
4 3 2 -0 -6 -7 -6 -9 -8 -7 -6 -3 -2 0 3 3 -0 -4 -3 -2 -1 -1 -1 -0 2 3 4 4 5 5 5 7 8 9 9 9 9 9 8 8 7 7
3 3 0 -3 -6 -8 -9 -9 -7 -5 -5 -2 1 2 3 2 -1 -3 -3 -4 -4 -1 1 1 2 3 4 4 5 5 6 7 9 10 10 10 10 10 10 10 9 8
2 1 -2 -6 -8 -10 -9 -7 -6 -4 -2 -0 2 2 2 -0 -2 -2 -2 -3 -1 4 6 6 5 4 4 5 5 5 6 6 8 10 10 10 10 11 11 10 10 9
3 -1 -4 -6 -9 -10 -8 -7 -5 -4 -2 -2 -1 -1 -3 -5 -5 -3 -2 -1 3 7 9 8 7 6 5 5 5 5 5 6 7 8 9 9 9 9 9 9 10 10
6 -1 -6 -6 -8 -7 -5 -6 -5 -4 -4 -4 -3 -5 -6 -5 -3 -1 2 3 5 7 8 8 8 8 7 5 3 3 4 4 5 6 6 7 7 7 8 9 10 10
8 1 -6 -6 -6 -3 -3 -5 -4 -3 -4 -5 -5 -4 -3 -1 1 4 5 6 6 6 7 8 9 8 6 6 6 5 4 4 5 5 6 7 7 7 8 9 9 9
6 1 -6 -5 -3 -1 -2 -3 -2 -2 -4 -4 -3 -1 1 3 4 6 6 7 6 7 7 8 7 7 7 7 8 7 7 6 6 7 7 9 9 8 8 9 10 10
4 2 -5 -3 -0 -1 -3 -4 -2 -3 -3 -2 -1 0 3 4 5 6 6 6 6 7 7 7 7 7 7 7 7 7 8 8 8 8 8 9 8 7 8 8 9 10
5 2 -3 -0 1 -2 -6 -7 -4 -2 -2 -1 0 1 3 4 4 5 6 7 6 6 7 6 6 6 6 7 8 8 8 7 7 7 7 7 7 7 8 7 7 7
6 1 -3 1 -0 -5 -6 -7 -6 -2 -1 0 2 2 3 3 3 5 6 7 6 6 6 6 6 6 8 9 8 8 7 6 6 6 7 7 7 8 7 6 4 4
9 1 -3 0 -1 -4 -3 -6 -8 -3 -1 0 2 2 2 1 3 5 6 6 5 6 5 5 6 8 9 8 8 7 6 4 5 7 7 7 6 6 5 4 4 4
11 3 -5 -1 -0 1 1 -4 -8 -4 -1 0 2 1 1 1 3 5 5 5 5 4 4 4 5 7 8 8 8 6 4 4 6 6 6 5 4 4 5 5 5 5
12 5 -6 -3 1 2 0 -5 -8 -5 -2 -0 1 1 1 1 3 4 5 6 5 3 2 2 4 7 8 9 8 5 4 5 5 4 3 3 4 5 6 6 7 7
13 7 -3 -3 2 2 -3 -9 -8 -4 -2 0 1 -1 -1 -0 1 3 5 5 2 0 1 3 5 7 8 9 7 4 3 4 4 3 4 4 6 6 7 7 7 8
12 9 -0 -1 3 0 -7 -9 -7 -5 -3 -0 -1 -3 -2 -2 -0 3 5 4 1 0 3 5 6 7 7 8 7 5 4 3 3 4 5 6 7 7 8 8 8 8
12 9 2 1 3 -2 -8 -7 -6 -5 -3 -2 -3 -4 -3 -2 0 4 5 3 0 1 4 6 7 6 6 7 7 6 4 4 4 5 6 7 8 8 8 8 8 8
13 10 3 2 4 -0 -6 -6 -6 -5 -4 -4 -5 -4 -3 -2 1 4 4 1 0 2 5 7 7 6 7 7 7 7 6 5 5 6 6 8 8 8 8 8 8 8
13 10 6 5 6 4 -1 -4 -4 -5 -4 -4 -4 -4 -2 -1 2 4 3 1 1 3 5 7 7 8 9 9 8 7 6 6 6 6 7 7 7 8 8 8 8 8
13 11 11 9 8 6 2 -0 -2 -4 -3 -2 -2 -2 -2 0 3 3 3 3 4 5 6 6 7 8 9 10 9 8 7 7 7 7 7 7 7 8 8 8 9 8
12 12 11 10 8 6 5 4 1 -2 -2 -1 -1 -1 -0 1 4 4 4 4 5 6 7 7 7 8 8 9 10 10 9 8 7 7 7 7 7 8 8 8 8 8
12 12 11 9 7 7 8 7 5 0 -1 -1 -1 0 0 2 3 5 4 5 6 7 7 7 9 9 9 9 9 10 11 10 9 8 7 7 7 7 8 8 7 6
13 13 11 9 8 8 9 10 8 4 -0 -1 -1 0 1 2 4 4 5 5 6 7 8 9 10 10 9 9 9 10 11 11 10 8 7 7 7 7 8 7 6 5
14 13 11 9 9 8 9 10 9 7 4 2 2 2 2 3 3 5 5 6 7 8 9 10 10 9 7 8 10 10 10 10 9 8 7 7 7 7 8 7 5 4
14 12 11 10 8 6 9 10 9 8 8 7 6 5 4 5 6 6 6 7 8 9 10 10 10 9 8 8 9 10 9 9 8 7 7 7 7 7 7 7 6 5
14 13 11 10 6 5 9 10 9 10 11 11 9 7 7 7 8 8 8 8 9 10 10 10 9 8 8 8 9 10 9 8 8 8 8 8 7 7 7 7 7 6
14 13 11 9 6 5 8 10 11 13 13 13 12 10 9 10 11 11 10 11 11 11 10 9 8 8 8 9 9 9 8 8 8 8 8 8 7 7 7 7 6 5
Wind_Speed
18 17 17 18 19 20 19 18 18 17 16 15 13 13 13 13 11 9 8 7 7 7 7 7 7 7 7 7 6 6 6 5 4 5 6 7 7 8 9 10 10 10
20 19 19 20 21 21 19 18 17 17 15 14 14 14 14 14 13 11 9 9 8 6 5 5 6 7 8 8 8 8 8 8 7 6 7 8 9 10 11 12 12 12
22 21 22 22 22 20 18 17 16 16 15 14 15 15 15 15 14 13 11 9 8 6 6 7 8 8 9 9 10 10 10 10 10 9 10 10 10 11 12 13 14 14
24 23 23 23 20 18 16 17 17 17 15 15 15 15 15 15 14 13 11 8 7 7 8 11 11 10 11 11 12 12 12 13 13 12 12 12 12 13 13 13 14 15
26 24 23 22 19 17 17 18 18 17 16 15 14 14 15 14 13 11 9 7 7 8 10 12 12 12 12 12 12 12 13 13 13 12 12 12 12 13 13 13 14 15
28 26 24 21 19 18 18 19 18 17 16 14 13 14 14 13 11 9 7 7 7 8 9 11 12 11 11 10 10 10 11 11 11 11 12 12 12 13 14 14 15 16
30 27 25 22 19 18 18 17 17 17 16 14 14 14 14 12 10 8 8 7 7 8 8 9 10 9 9 9 9 9 9 9 9 10 12 12 13 14 15 16 17 18
31 29 26 22 20 18 17 17 17 17 16 15 14 14 14 12 10 8 8 8 7 7 8 8 8 8 8 9 9 10 10 10 11 12 13 13 14 15 16 17 18 18
32 30 27 23 21 19 17 17 17 17 17 16 15 14 14 12 10 9 9 8 8 8 7 7 7 7 8 8 9 10 11 12 12 12 13 14 15 15 15 16 17 17
34 33 29 24 22 19 16 17 18 17 18 17 15 15 14 12 11 10 10 10 9 8 7 6 7 8 9 10 11 12 12 12 12 12 12 13 14 14 14 15 16 17
38 36 31 26 23 18 14 17 19 18 19 18 17 16 14 12 12 11 11 11 10 8 8 8 8 10 10 11 11 12 13 12 11 10 10 11 11 12 13 14 15 16
41 38 33 28 24 17 13 17 20 19 19 20 19 17 15 13 13 12 12 11 10 9 9 9 10 11 11 11 12 13 12 11 9 9 9 10 11 12 13 15 16 17
43 39 36 31 23 15 16 20 21 20 20 21 20 18 16 15 14 13 12 12 11 10 10 11 11 12 11 11 12 12 11 10 9 10 11 12 13 15 16 18 18 19
45 41 38 31 21 16 20 23 22 21 21 21 21 19 17 16 14 13 13 14 12 11 10 11 12 12 11 11 12 12 11 11 11 12 13 15 16 18 19 19 20 20
47 42 38 30 20 19 23 23 22 22 22 22 21 19 17 15 14 14 15 16 14 12 11 11 11 11 10 11 12 12 11 12 13 14 16 17 19 20 21 20 21 21
47 43 39 29 22 23 25 23 22 22 22 22 21 19 17 15 15 16 17 17 15 13 12 11 11 10 10 11 12 12 12 13 15 16 18 20 21 21 21 20 20 21
49 46 41 32 26 26 26 22 21 21 21 21 20 18 17 16 16 17 18 17 16 14 14 12 11 11 11 12 13 14 14 15 16 19 20 21 22 22 21 20 20 21
50 46 40 30 23 24 24 21 20 20 20 21 20 18 18 17 18 18 18 17 15 15 14 12 12 12 13 14 16 16 17 17 19 21 22 23 24 23 21 21 21 22
44 40 36 27 20 22 24 22 20 21 21 21 20 18 19 19 19 19 18 16 15 15 14 13 13 14 15 17 18 19 20 20 21 23 25 25 25 24 23 23 23 23
42 40 37 31 25 27 29 26 23 22 21 21 20 20 21 21 20 20 18 16 15 15 15 15 15 15 17 19 21 22 22 23 23 25 27 27 26 26 25 24 24 24
45 43 41 35 28 29 32 31 27 24 22 21 22 22 23 22 21 20 18 17 17 16 15 16 17 18 21 22 22 23 24 25 26 26 27 27 26 27 26 24 24 24
44 44 44 37 29 30 34 34 30 27 23 23 23 23 23 22 20 19 19 19 19 18 18 19 20 20 22 22 22 23 25 26 26 26 26 25 25 26 26 25 24 24
43 44 41 33 29 31 33 33 32 30 28 26 26 25 24 23 21 20 20 20 20 22 22 21 21 20 21 20 20 20 22 23 23 23 24 23 23 25 26 25 24 25
44 44 39 30 27 30 32 32 31 32 33 31 28 26 25 23 22 22 22 24 26 27 24 21 21 22 23 22 19 17 19 21 22 22 22 22 22 24 26 26 26 26
42 41 34 26 25 30 31 31 32 35 38 37 32 29 27 26 26 27 27 28 29 27 23 21 21 22 23 22 19 17 19 20 22 22 22 22 23 24 26 27 27 26
41 36 25 18 23 31 30 30 35 38 38 36 34 33 31 30 30 29 27 27 27 26 25 23 20 19 20 20 18 18 19 21 22 22 23 23 24 25 26 26 25 25
Wind_Direction
227 232 238 240 234 226 221 218 217 217 218 221 227 234 242 248 245 239 239 241 245 244 242 244 241 239 240 239 230 219 223 237 253 281 291 297 306 303 297 294 292 293
222 227 231 229 225 220 215 212 212 213 215 221 229 235 241 243 239 233 233 237 243 243 243 254 255 247 244 244 239 233 235 241 251 271 280 284 291 294 295 292 288 287
219 223 225 222 219 215 213 213 214 214 216 221 227 233 236 236 233 230 229 233 240 250 264 277 277 267 259 257 251 245 243 246 253 264 273 279 283 288 293 290 284 283
218 221 223 220 215 212 215 218 217 215 215 219 224 228 228 226 224 222 222 227 237 251 262 271 275 273 270 267 262 257 253 254 258 264 272 278 283 289 294 294 289 285
222 221 221 218 212 212 218 219 218 216 214 215 220 222 221 218 214 211 215 227 243 254 262 268 272 271 270 271 270 268 264 264 267 269 273 278 283 290 297 298 294 288
225 223 220 217 212 214 220 220 217 217 214 212 213 214 213 211 208 206 214 228 241 254 263 268 269 267 267 272 275 275 272 271 271 272 277 281 284 291 299 301 297 291
223 222 219 215 211 215 221 221 220 219 217 213 208 207 207 204 201 203 210 221 232 244 257 263 263 261 262 267 270 271 271 273 274 275 278 283 288 293 297 300 300 294
219 219 216 212 210 213 218 220 222 223 220 214 207 203 203 202 199 200 207 217 226 238 250 255 258 258 258 262 266 269 271 272 273 276 281 288 293 296 298 300 301 296
219 218 213 209 208 210 215 220 223 224 222 217 207 201 202 204 205 208 216 225 233 241 246 249 252 251 253 262 269 272 275 276 278 283 289 295 296 295 298 302 302 299
218 216 212 209 207 207 216 221 222 224 224 218 208 203 205 208 211 219 227 233 240 244 248 253 254 254 259 267 273 279 285 288 288 289 292 295 295 295 299 303 303 302
218 214 210 207 203 203 217 222 219 221 222 218 211 207 209 211 217 226 232 237 242 244 250 256 256 259 265 272 282 291 293 291 286 286 291 294 295 298 303 305 303 302
217 213 210 206 201 206 226 225 218 218 219 216 213 211 211 214 219 227 234 241 246 248 252 256 258 262 267 277 289 293 288 281 276 279 289 296 301 306 306 303 300 299
217 214 211 207 203 212 224 217 213 216 218 216 215 214 213 215 220 227 238 245 246 246 251 255 256 258 265 278 288 287 277 270 272 281 289 294 299 302 301 298 296 295
219 215 211 206 205 213 213 208 210 215 217 217 215 214 215 216 219 228 241 245 241 241 250 255 254 254 261 273 282 281 271 268 275 283 288 292 294 297 298 296 293 292
220 215 209 204 202 205 203 204 208 212 215 216 215 215 217 217 219 231 242 242 237 241 251 254 253 254 259 268 276 279 271 268 277 284 289 290 291 294 297 296 292 290
219 212 206 202 200 200 200 203 206 208 213 216 215 217 218 217 222 234 241 240 238 243 248 249 252 255 259 264 271 277 275 273 277 283 287 288 288 291 294 294 290 287
218 211 204 201 202 200 197 200 203 206 212 214 215 218 220 220 227 235 239 239 237 240 242 246 253 258 262 266 268 271 275 278 281 283 286 287 288 291 291 290 288 287
215 207 200 199 202 202 200 201 202 205 212 215 217 220 221 223 229 234 237 237 236 238 241 246 254 260 266 270 270 272 275 280 284 287 288 288 289 289 287 285 285 287
206 201 198 196 202 210 209 205 205 208 213 217 219 223 226 228 231 234 236 236 236 239 242 247 253 257 261 265 269 274 278 281 285 288 288 287 287 286 283 281 283 287
205 205 202 199 206 215 212 209 210 212 214 220 224 227 230 231 233 235 234 233 236 240 246 253 258 263 267 267 267 270 275 279 282 284 286 287 287 286 282 280 284 289
209 209 204 201 207 213 212 212 215 214 215 222 227 229 233 234 235 235 234 234 239 244 252 261 269 275 279 274 268 266 269 272 277 282 286 288 289 287 284 283 287 290
208 205 202 203 208 211 213 215 217 217 218 223 228 232 235 237 237 237 240 243 248 252 259 266 272 278 281 275 270 269 266 267 275 283 287 288 288 287 285 285 288 291
200 199 200 204 206 204 208 214 217 220 221 224 231 235 236 239 240 241 244 249 253 256 260 266 271 277 280 275 270 271 269 272 281 286 286 287 287 287 286 285 287 290
196 200 200 200 197 197 204 211 215 221 224 226 232 237 240 242 244 245 249 252 253 255 260 267 273 278 280 275 270 273 276 280 284 285 286 289 289 287 285 284 286 289
201 201 196 190 191 198 205 211 216 225 231 232 235 239 242 244 245 247 253 254 252 254 261 270 276 279 280 276 273 275 278 279 281 284 288 290 289 286 283 283 286 289
197 192 188 190 202 207 212 221 228 235 241 241 241 243 244 245 244 245 249 252 254 259 266 270 273 273 272 272 271 272 274 277 281 285 287 286 283 282 281 284 286 287
Height
1537 1538 1539 1540 1541 1541 1542 1542 1543 1543 1544 1545 1545 1546 1546 1547 1547 1547 1548 1548 1549 1549 1549 1549 1549 1549 1549 1548 1548 1547 1547 1547 1547 1547 1547 1546 1547 1546 1546 1546 1546 1546
1535 1536 1538 1539 1539 1540 1540 1541 1541 1541 1542 1543 1543 1544 1544 1545 1545 1546 1546 1547 1547 1548 1548 1548 1548 1548 1548 1547 1547 1546 1546 1546 1546 1545 1545 1545 1545 1545 1545 1545 1544 1544
1533 1534 1536 1537 1537 1538 1539 1539 1539 1540 1540 1540 1541 1542 1543 1543 1544 1544 1544 1545 1546 1546 1547 1547 1547 1547 1546 1546 1545 1545 1544 1544 1544 1543 1543 1543 1543 1543 1543 1542 1542 1541
1531 1533 1534 1535 1536 1536 1537 1537 1538 1538 1538 1538 1539 1540 1541 1541 1542 1542 1543 1543 1544 1545 1545 1546 1546 1545 1545 1545 1544 1544 1543 1543 1542 1542 1541 1541 1541 1541 1541 1540 1540 1539
1530 1532 1533 1534 1534 1535 1535 1536 1536 1536 1536 1536 1537 1538 1539 1540 1540 1540 1541 1541 1542 1543 1544 1544 1544 1544 1544 1543 1543 1542 1542 1541 1541 1540 1540 1539 1539 1539 1539 1538 1538 1537
1529 1530 1531 1532 1532 1533 1534 1535 1535 1535 1534 1534 1535 1536 1537 1538 1538 1539 1539 1539 1540 1541 1542 1542 1542 1542 1542 1542 1541 1541 1540 1539 1539 1538 1538 1537 1537 1537 1537 1536 1536 1535
1525 1528 1529 1530 1531 1532 1533 1534 1534 1534 1534 1533 1533 1534 1535 1536 1536 1537 1537 1537 1538 1538 1539 1540 1540 1540 1540 1540 1539 1539 1538 1537 1537 1536 1536 1536 1535 1535 1535 1534 1533 1533
1522 1525 1527 1528 1529 1529 1531 1532 1532 1533 1533 1532 1531 1531 1533 1534 1535 1535 1535 1535 1535 1536 1536 1537 1537 1538 1538 1538 1537 1537 1536 1535 1534 1534 1533 1533 1533 1533 1532 1532 1531 1530
1520 1523 1524 1525 1526 1526 1528 1529 1530 1531 1531 1531 1530 1530 1531 1532 1533 1534 1534 1533 1533 1533 1533 1534 1535 1535 1535 1535 1535 1534 1533 1533 1532 1531 1531 1531 1530 1530 1530 1529 1528 1527
1517 1519 1521 1522 1522 1523 1524 1526 1528 1528 1529 1529 1529 1529 1529 1530 1531 1532 1532 1531 1531 1530 1531 1531 1532 1533 1533 1533 1532 1531 1531 1530 1529 1529 1528 1528 1528 1528 1528 1527 1526 1525
1512 1515 1517 1518 1518 1519 1521 1524 1525 1525 1526 1527 1527 1527 1527 1528 1529 1530 1530 1530 1529 1528 1528 1529 1530 1530 1530 1530 1529 1528 1528 1527 1527 1526 1526 1526 1526 1526 1526 1525 1525 1524
1507 1510 1512 1513 1514 1516 1518 1521 1521 1522 1523 1524 1525 1525 1525 1525 1526 1527 1528 1528 1527 1526 1526 1527 1527 1528 1528 1527 1527 1526 1525 1525 1524 1524 1524 1524 1524 1524 1524 1523 1523 1522
1503 1506 1508 1509 1511 1512 1515 1517 1518 1519 1519 1521 1522 1522 1522 1523 1524 1525 1525 1525 1525 1524 1524 1525 1525 1526 1526 1525 1525 1524 1523 1523 1522 1522 1522 1522 1522 1522 1522 1521 1520 1519
1498 1501 1503 1505 1507 1509 1511 1512 1514 1515 1516 1518 1519 1519 1520 1520 1521 1522 1523 1523 1523 1522 1522 1523 1523 1524 1524 1524 1523 1522 1522 1521 1520 1520 1520 1520 1520 1520 1519 1519 1518 1517
1493 1497 1499 1502 1504 1505 1506 1508 1509 1511 1513 1515 1516 1517 1518 1518 1519 1520 1521 1521 1520 1520 1520 1521 1522 1522 1522 1522 1521 1520 1520 1519 1518 1518 1517 1517 1517 1517 1517 1516 1516 1515
1488 1492 1495 1497 1499 1500 1503 1505 1507 1509 1511 1513 1514 1515 1516 1517 1517 1518 1519 1519 1518 1518 1518 1519 1520 1520 1520 1520 1519 1518 1518 1517 1516 1516 1515 1515 1515 1515 1514 1514 1513 1512
1483 1486 1489 1491 1493 1496 1500 1503 1505 1507 1509 1511 1512 1513 1514 1515 1516 1516 1516 1516 1516 1515 1516 1516 1517 1518 1518 1518 1517 1516 1516 1515 1514 1514 1513 1513 1513 1512 1512 1511 1510 1509
1477 1482 1486 1489 1494 1498 1501 1502 1503 1505 1507 1508 1509 1511 1512 1513 1514 1514 1514 1514 1513 1513 1513 1514 1515 1515 1515 1516 1515 1514 1514 1513 1512 1512 1511 1511 1510 1509 1509 1508 1507 1506
1481 1486 1489 1492 1497 1501 1503 1502 1502 1503 1505 1506 1507 1509 1510 1511 1511 1512 1512 1512 1511 1511 1511 1512 1512 1513 1513 1513 1512 1512 1511 1510 1510 1509 1509 1508 1508 1507 1506 1505 1504 1503
1480 1485 1488 1491 1493 1497 1500 1501 1501 1502 1502 1504 1505 1507 1508 1508 1509 1509 1510 1510 1509 1509 1509 1510 1510 1511 1511 1510 1509 1509 1508 1508 1507 1507 1506 1506 1505 1504 1503 1502 1501 1500
1471 1477 1483 1486 1489 1493 1496 1498 1500 1500 1500 1502 1503 1504 1505 1506 1507 1507 1507 1507 1507 1507 1508 1508 1509 1509 1509 1508 1507 1506 1506 1505 1505 1504 1504 1503 1503 1502 1500 1499 1498 1497
1466 1471 1478 1483 1486 1490 1493 1496 1497 1498 1499 1500 1501 1501 1503 1504 1504 1505 1505 1504 1505 1505 1506 1506 1506 1507 1506 1505 1504 1504 1503 1502 1502 1502 1501 1501 1500 1499 1498 1497 1495 1494
1467 1471 1476 1480 1484 1488 1491 1494 1495 1494 1495 1497 1498 1498 1500 1501 1502 1502 1502 1502 1502 1503 1503 1503 1504 1504 1504 1502 1502 1501 1501 1500 1500 1499 1498 1498 1497 1496 1495 1494 1493 1491
1466 1469 1472 1477 1482 1486 1488 1489 1490 1490 1491 1493 1495 1496 1497 1498 1499 1499 1499 1499 1498 1498 1500 1501 1501 1501 1500 1499 1499 1498 1498 1497 1497 1496 1495 1495 1495 1494 1493 1492 1490 1489
1463 1466 1470 1474 1479 1483 1483 1484 1485 1486 1487 1490 1492 1494 1494 1495 1496 1496 1496 1496 1495 1496 1498 1499 1499 1498 1497 1496 1496 1495 1495 1494 1494 1493 1493 1492 1492 1491 1490 1489 1487 1486
1460 1465 1470 1473 1477 1479 1480 1481 1482 1484 1487 1490 1491 1491 1492 1493 1493 1493 1494 1493 1493 1494 1495 1495 1495 1494 1494 1493 1492 1492 1492 1491 1491 1490 1490 1489 1489 1488 1487 1486 1485 1483